Notices

What's New in latest Release from April 7th, 2021:

- Updated Glossary, including Speed of Maximum Gust, and Total Hourly Precipitation

- Updated national and regional climate services offices contacts and prices information

- Addition of station inventory lists for 1981-2010, 1971-2000, and 1961-1990 Normals.

If you haven't already, please take our survey and provide feedback about our website: https://eccc.sondage-survey.ca/f/LanguageSelection.aspx?s=442ca660-fcf1-47c0-95a9-59707d6fd709

Hourly Data Report for May 08, 2021

VICTORIA UNIVERSITY CS
BRITISH COLUMBIA
Current Station Operator: ECCC - MSC

48°27'25.200" N
123°18'16.600" W
60.10 m
1018598
71783
WYJ

Download Data

Hourly Data (May 2021)
Hourly Data Report for May 8, 2021
TIME
LST
Temp Definition
°C
Dew Point Definition
°C
Rel Hum Definition
%
Precip. Amount Definition
mm

Wind Dir Definition
10's deg

Wind Spd Definition
km/h
Visibility Definition
km
Stn Press Definition
kPa
Hmdx Definition


Wind Chill Definition


Weather Definition


00:00 7.1 4.9 86 0.0 25 7   101.89     LegendNANA
01:00 7.0 4.2 82 0.0 25 6   101.91     LegendNANA
02:00 7.0 3.2 77 0.0 25 5   101.92     LegendNANA
03:00 6.6 3.8 82 0.0 25 5   101.93     LegendNANA
04:00 6.3 3.0 79 0.0 25 4   101.96     LegendNANA
05:00 6.5 5.0 90 0.0 25 5   101.98     LegendNANA
06:00 7.5 4.5 81 0.0 25 7   102.01     LegendNANA
07:00 9.1 4.8 75 0.0 23 8   102.05     LegendNANA
08:00 9.9 4.5 69 0.0 24 8   102.07     LegendNANA
09:00 11.0 3.8 61 0.0 22 9   102.08     LegendNANA
10:00 11.5 6.3 70 0.0 16 7   102.09     LegendNANA
11:00 10.7 3.8 62 0.0 15 8   102.10     LegendNANA
12:00 11.4 6.3 71 0.0 16 6   102.08     LegendNANA
13:00 10.2 4.7 69 0.0 17 11   102.10     LegendNANA
14:00 11.0 3.5 60 0.0 17 7   102.08     LegendNANA
15:00 11.0 4.6 65 0.0 18 7   102.07     LegendNANA
16:00 10.7 4.8 67 0.0 22 4   102.06     LegendNANA
17:00 10.5 4.7 68 0.0 19 4   102.05     LegendNANA
18:00 10.6 6.9 78 0.2 21 2   102.02     LegendNANA
19:00 10.1 5.8 75 0.0 22 3   102.00     LegendNANA
20:00 9.5 7.3 86 0.0 25 1   102.01     LegendNANA
21:00 8.9 8.9 99 0.3   0   102.01     LegendNANA
22:00 8.6 8.6 100 0.3 29 2   101.97     LegendNANA
23:00 8.4 8.4 100 0.4   0   101.95     LegendNANA

Notes on Data Quality.

Legend

  • E = Estimated
  • M = Missing
  • NA = Not Available*
  • [empty] = Indicates an unobserved value
Date modified: